QTR76W OTHH-CYUL

Flight info

Callsign QTR76W
Flight time N/A
Altitude 29000
Route DATRI L564 MIGMA/N0513F280 M628 AMBAG/N0498F340 M321 KSA T503 OVANO L768 FIRAS R655 KTN R785 NIKAS L619 VESAR UB545 MUT UL619 OSVEL UQ23 OSDAN UQ26 DIGBO UL615 VADEN DCT GOGAR DCT UTEKA DCT KOTUS DCT BABIT DCT SOGMO DCT SASAL DCT RENKA DCT INBED DCT BOMBI DCT ADKUV DCT LENDO DCT SOGRI DCT DENUT L610 KOPUL Q60 OKSAW DCT TIGWE DCT ARPAK DCT FELCA DCT FADZU DCT NICXI DCT OFSOX DCT SLANY DCT LUPOR DCT MALOT/M085F340 DCT 5330N02000W 5430N03000W 54N040W 52N050W DCT TUDEP/N0490F340 DCT TAFFY DCT ATENE DCT KEBIG ROCKT3
Aircraft A35K/H-SDE2E3GHIJ3J4J5LM1ORWXY/LB1D1

Departure

Time 2026-05-06 22:01
Airport Hamad International Airport (OTHH)

Arrival

Time N/A
Airport Montreal / Pierre Elliott Trudeau International Airport (CYUL)
Time Latitude Longitude Altitude Speed Heading
2026-05-06 21:30 25.26812 51.61253 36 ft 0 kts 293°
2026-05-06 21:49 25.26812 51.61254 36 ft 0 kts 293°
2026-05-06 21:49 25.26804 51.61276 36 ft 4 kts 293°
2026-05-06 21:50 25.26793 51.61304 34 ft 4 kts 292°
2026-05-06 21:50 25.26785 51.61326 35 ft 4 kts 272°
2026-05-06 21:50 25.26792 51.61350 32 ft 4 kts 219°
2026-05-06 21:50 25.26813 51.61363 32 ft 4 kts 202°
2026-05-06 21:51 25.26838 51.61375 32 ft 3 kts 203°
2026-05-06 21:51 25.26843 51.61377 32 ft 0 kts 203°
2026-05-06 21:53 25.26842 51.61377 36 ft 0 kts 203°
2026-05-06 21:54 25.26826 51.61369 36 ft 5 kts 202°
2026-05-06 21:54 25.26780 51.61349 36 ft 9 kts 202°
2026-05-06 21:54 25.26704 51.61325 36 ft 14 kts 180°
2026-05-06 21:54 25.26600 51.61362 36 ft 18 kts 158°
2026-05-06 21:55 25.26476 51.61416 36 ft 20 kts 159°
2026-05-06 21:55 25.26398 51.61512 36 ft 17 kts 77°
2026-05-06 21:55 25.26441 51.61636 36 ft 18 kts 68°
2026-05-06 21:55 25.26486 51.61760 36 ft 17 kts 68°
2026-05-06 21:56 25.26530 51.61881 35 ft 17 kts 68°
2026-05-06 21:56 25.26556 51.62002 34 ft 16 kts 109°
2026-05-06 21:56 25.26465 51.62069 34 ft 18 kts 156°
2026-05-06 21:56 25.26335 51.62127 35 ft 22 kts 158°
2026-05-06 21:57 25.26192 51.62190 35 ft 22 kts 158°
2026-05-06 21:57 25.26054 51.62251 35 ft 21 kts 158°
2026-05-06 21:57 25.25917 51.62311 35 ft 21 kts 158°
2026-05-06 21:57 25.25782 51.62370 35 ft 21 kts 158°
2026-05-06 21:58 25.25648 51.62429 34 ft 21 kts 157°
2026-05-06 21:58 25.25537 51.62485 34 ft 11 kts 141°
2026-05-06 21:58 25.25518 51.62519 34 ft 0 kts 108°
2026-05-06 21:59 25.25518 51.62525 34 ft 2 kts 99°
2026-05-06 21:59 25.25516 51.62563 33 ft 8 kts 89°
2026-05-06 21:59 25.25535 51.62636 32 ft 12 kts 63°
2026-05-06 21:59 25.25595 51.62656 33 ft 9 kts 341°
2026-05-06 22:00 25.25615 51.62647 33 ft 0 kts 338°
2026-05-06 22:00 25.25616 51.62647 33 ft 2 kts 338°
2026-05-06 22:00 25.25766 51.62580 32 ft 54 kts 338°
2026-05-06 22:00 25.26323 51.62336 33 ft 117 kts 338°
2026-05-06 22:01 25.27255 51.61926 32 ft 171 kts 338°
2026-05-06 22:01 25.28427 51.61395 540 ft 179 kts 339°
2026-05-06 22:01 25.29556 51.60891 1322 ft 175 kts 339°
2026-05-06 22:01 25.30688 51.60406 1665 ft 175 kts 340°
2026-05-06 22:02 25.31836 51.59928 1882 ft 179 kts 340°
2026-05-06 22:02 25.33027 51.59428 2035 ft 187 kts 339°
2026-05-06 22:02 25.34312 51.59080 2163 ft 195 kts 360°
2026-05-06 22:02 25.35627 51.59511 2386 ft 204 kts 26°
2026-05-06 22:03 25.36928 51.60242 2503 ft 215 kts 21°
2026-05-06 22:03 25.38362 51.60813 2647 ft 224 kts 15°
2026-05-06 22:03 25.39897 51.61288 2798 ft 234 kts 13°
2026-05-06 22:03 25.41501 51.61740 2972 ft 247 kts 12°
2026-05-06 22:04 25.43212 51.62201 3151 ft 259 kts 12°
2026-05-06 22:04 25.44984 51.62669 3480 ft 263 kts 12°
2026-05-06 22:04 25.46775 51.63138 3861 ft 266 kts 12°
2026-05-06 22:04 25.48591 51.63605 4209 ft 270 kts 12°
2026-05-06 22:05 25.50442 51.64051 4547 ft 274 kts 12°
2026-05-06 22:05 25.52319 51.64499 4913 ft 276 kts 12°
2026-05-06 22:05 25.54206 51.64952 5303 ft 278 kts 12°
2026-05-06 22:05 25.56099 51.65408 5685 ft 280 kts 12°
2026-05-06 22:06 25.58024 51.65762 6014 ft 283 kts
2026-05-06 22:06 25.59986 51.65513 6379 ft 283 kts 348°
2026-05-06 22:06 25.61906 51.65040 6794 ft 283 kts 347°
2026-05-06 22:06 25.63838 51.64556 7164 ft 285 kts 348°
2026-05-06 22:07 25.65774 51.64079 7551 ft 286 kts 348°
2026-05-06 22:07 25.67728 51.63602 7924 ft 288 kts 348°
2026-05-06 22:07 25.69664 51.63132 8335 ft 289 kts 348°
2026-05-06 22:07 25.71634 51.62653 8691 ft 292 kts 347°
2026-05-06 22:08 25.73596 51.61976 9151 ft 291 kts 339°
2026-05-06 22:08 25.75456 51.61128 9542 ft 294 kts 337°
2026-05-06 22:08 25.77345 51.60236 9943 ft 295 kts 338°
2026-05-06 22:08 25.79269 51.59330 10151 ft 305 kts 337°
2026-05-06 22:09 25.81261 51.58394 10306 ft 316 kts 338°
2026-05-06 22:09 25.83301 51.57385 10487 ft 327 kts 333°
2026-05-06 22:09 25.85123 51.55823 10610 ft 338 kts 310°
2026-05-06 22:09 25.86419 51.53603 10793 ft 348 kts 299°
2026-05-06 22:10 25.87569 51.51200 10952 ft 358 kts 298°
2026-05-06 22:10 25.88745 51.48720 11126 ft 367 kts 298°
2026-05-06 22:10 25.89954 51.46186 11289 ft 376 kts 298°
2026-05-06 22:10 25.91198 51.43596 11452 ft 385 kts 298°
2026-05-06 22:11 25.92473 51.40949 11604 ft 393 kts 298°
2026-05-06 22:11 25.93777 51.38245 11749 ft 401 kts 298°
2026-05-06 22:11 25.95088 51.35532 12010 ft 405 kts 298°
2026-05-06 22:11 25.96425 51.32762 12328 ft 407 kts 298°
2026-05-06 22:12 25.97770 51.29974 12585 ft 412 kts 298°
2026-05-06 22:12 25.99105 51.27148 12918 ft 414 kts 297°
2026-05-06 22:12 26.00423 51.24315 13338 ft 414 kts 297°
2026-05-06 22:12 26.01760 51.21443 13595 ft 419 kts 297°
2026-05-06 22:13 26.02654 51.19524 13780 ft 420 kts 297°
2026-05-06 22:13 26.04011 51.16620 13961 ft 426 kts 297°
2026-05-06 22:13 26.05373 51.13701 14398 ft 424 kts 296°
2026-05-06 22:13 26.06741 51.10767 14659 ft 427 kts 297°
2026-05-06 22:14 26.08113 51.07826 14963 ft 430 kts 296°
2026-05-06 22:14 26.09495 51.04860 15274 ft 431 kts 296°
2026-05-06 22:14 26.10870 51.01911 15743 ft 429 kts 296°
2026-05-06 22:14 26.12221 50.98978 15968 ft 432 kts 295°
2026-05-06 22:15 26.13519 50.95922 16361 ft 431 kts 294°
2026-05-06 22:15 26.14737 50.92906 16722 ft 432 kts 292°
2026-05-06 22:15 26.15960 50.89834 16913 ft 437 kts 292°
2026-05-06 22:15 26.17194 50.86738 17257 ft 437 kts 292°
2026-05-06 22:16 26.18433 50.83669 17759 ft 433 kts 291°
2026-05-06 22:16 26.19673 50.80613 18103 ft 434 kts 292°
2026-05-06 22:16 26.20921 50.77549 18349 ft 436 kts 292°
2026-05-06 22:16 26.22182 50.74466 18600 ft 437 kts 291°
2026-05-06 22:17 26.23443 50.71384 18866 ft 438 kts 292°
2026-05-06 22:17 26.24701 50.68294 19121 ft 439 kts 291°
2026-05-06 22:17 26.25681 50.65083 19383 ft 437 kts 281°
2026-05-06 22:17 26.26314 50.61783 19725 ft 435 kts 278°
2026-05-06 22:18 26.26820 50.58499 19996 ft 436 kts 277°
2026-05-06 22:18 26.27266 50.55156 20274 ft 437 kts 276°
2026-05-06 22:18 26.27683 50.51796 20552 ft 438 kts 276°
2026-05-06 22:18 26.28093 50.48430 20825 ft 439 kts 275°
2026-05-06 22:19 26.28508 50.45058 21144 ft 439 kts 275°
2026-05-06 22:19 26.28930 50.41678 21437 ft 441 kts 276°
2026-05-06 22:19 26.29357 50.38301 21807 ft 440 kts 276°
2026-05-06 22:19 26.29815 50.34925 22112 ft 442 kts 278°
2026-05-06 22:20 26.30603 50.31605 22390 ft 445 kts 286°
2026-05-06 22:20 26.31633 50.28348 22672 ft 447 kts 288°
2026-05-06 22:20 26.32755 50.25103 22946 ft 449 kts 289°
2026-05-06 22:20 26.33922 50.21868 23232 ft 450 kts 289°
2026-05-06 22:21 26.35106 50.18638 23501 ft 451 kts 289°
2026-05-06 22:21 26.36293 50.15404 23795 ft 450 kts 289°
2026-05-06 22:21 26.37462 50.12201 24025 ft 451 kts 289°
2026-05-06 22:21 26.38642 50.08943 24242 ft 453 kts 289°
2026-05-06 22:22 26.39824 50.05663 24457 ft 455 kts 289°
2026-05-06 22:22 26.41004 50.02372 24710 ft 456 kts 289°
2026-05-06 22:22 26.42187 49.99071 24985 ft 457 kts 288°
2026-05-06 22:22 26.43349 49.95823 25258 ft 458 kts 288°
2026-05-06 22:23 26.44534 49.92507 25548 ft 459 kts 288°
2026-05-06 22:23 26.45719 49.89191 25829 ft 460 kts 288°
2026-05-06 22:23 26.46903 49.85873 26105 ft 462 kts 288°
2026-05-06 22:23 26.48245 49.82593 26372 ft 466 kts 295°
2026-05-06 22:24 26.49979 49.79510 26636 ft 472 kts 303°
2026-05-06 22:24 26.52145 49.76729 26870 ft 480 kts 311°
2026-05-06 22:24 26.54745 49.74328 26997 ft 489 kts 320°
2026-05-06 22:24 26.57564 49.72173 27235 ft 492 kts 322°
2026-05-06 22:25 26.60453 49.70107 27511 ft 494 kts 323°
2026-05-06 22:25 26.63377 49.68072 27777 ft 496 kts 323°
2026-05-06 22:25 26.66315 49.66036 28025 ft 497 kts 323°
2026-05-06 22:25 26.69255 49.63989 28265 ft 498 kts 323°
2026-05-06 22:26 26.75134 49.59841 28364 ft 508 kts 323°
2026-05-06 22:26 26.78134 49.57711 28643 ft 508 kts 323°
2026-05-06 22:26 26.81107 49.55589 29016 ft 506 kts 323°
2026-05-06 22:27 26.84071 49.53470 29342 ft 505 kts 323°
2026-05-06 22:27 26.87036 49.51351 29640 ft 505 kts 323°
2026-05-06 22:27 26.90006 49.49226 29819 ft 507 kts 322°
2026-05-06 22:27 26.93007 49.47074 29679 ft 515 kts 322°
2026-05-06 22:28 26.96027 49.44902 29926 ft 514 kts 322°
2026-05-06 22:28 26.98862 49.42521 30253 ft 505 kts 314°
2026-05-06 22:28 27.01331 49.39787 30601 ft 495 kts 305°
2026-05-06 22:28 27.03353 49.36774 30966 ft 484 kts 296°
2026-05-06 22:29 27.05110 49.33574 31322 ft 477 kts 295°
2026-05-06 22:29 27.06764 49.30371 31662 ft 473 kts 294°
2026-05-06 22:29 27.08372 49.27159 31820 ft 471 kts 293°
2026-05-06 22:29 27.09962 49.23944 31849 ft 469 kts 293°
2026-05-06 22:30 27.13126 49.17548 31849 ft 469 kts 293°
2026-05-06 22:30 27.16313 49.11154 31856 ft 469 kts 293°
2026-05-06 22:31 27.19512 49.04763 31869 ft 468 kts 293°
2026-05-06 22:31 27.22698 48.98402 31859 ft 467 kts 293°
2026-05-06 22:32 27.25864 48.92063 31864 ft 467 kts 293°
2026-05-06 22:32 27.29031 48.85696 31867 ft 467 kts 293°
2026-05-06 22:33 27.32198 48.79321 31896 ft 466 kts 293°
2026-05-06 22:33 27.35362 48.72948 31877 ft 467 kts 292°
2026-05-06 22:34 27.38526 48.66567 31881 ft 467 kts 292°
2026-05-06 22:34 27.41690 48.60176 31886 ft 467 kts 292°
2026-05-06 22:35 27.44852 48.53781 31890 ft 467 kts 292°
2026-05-06 22:35 27.47987 48.47432 31893 ft 467 kts 292°
2026-05-06 22:36 27.51141 48.41033 31896 ft 466 kts 292°
2026-05-06 22:36 27.54282 48.34651 31904 ft 465 kts 292°
2026-05-06 22:37 27.57418 48.28269 31904 ft 465 kts 292°
2026-05-06 22:37 27.60560 48.21887 31913 ft 465 kts 292°
2026-05-06 22:38 27.63690 48.15511 31917 ft 464 kts 292°
2026-05-06 22:38 27.66816 48.09132 31923 ft 464 kts 292°
2026-05-06 22:39 27.69924 48.02787 31926 ft 465 kts 292°
2026-05-06 22:39 27.73044 47.96408 31925 ft 464 kts 291°
2026-05-06 22:40 27.76157 47.90002 31924 ft 464 kts 291°
2026-05-06 22:40 27.79251 47.83627 31929 ft 464 kts 291°
2026-05-06 22:41 27.83824 47.74053 31948 ft 459 kts 287°
2026-05-06 22:42 27.86116 47.67389 31937 ft 453 kts 283°
2026-05-06 22:42 27.88216 47.60668 31938 ft 452 kts 282°
2026-05-06 22:43 27.90282 47.53942 31943 ft 452 kts 282°
2026-05-06 22:43 27.92347 47.47237 31941 ft 451 kts 282°
2026-05-06 22:44 27.94404 47.40569 31949 ft 451 kts 282°
2026-05-06 22:44 27.96468 47.33876 31945 ft 450 kts 282°
2026-05-06 22:45 27.98525 47.27190 31949 ft 450 kts 282°
2026-05-06 22:45 28.00577 47.20505 31948 ft 449 kts 282°
2026-05-06 22:46 28.02626 47.13819 31951 ft 449 kts 282°
2026-05-06 22:46 28.04670 47.07137 31946 ft 449 kts 282°
2026-05-06 22:47 28.06709 47.00456 31950 ft 449 kts 282°
2026-05-06 22:47 28.08748 46.93763 31951 ft 449 kts 282°
2026-05-06 22:48 28.10767 46.87127 31952 ft 449 kts 282°
2026-05-06 22:48 28.12942 46.80474 31952 ft 451 kts 284°
2026-05-06 22:49 28.15201 46.73834 31957 ft 451 kts 284°
2026-05-06 22:49 28.17440 46.67192 31955 ft 451 kts 283°
2026-05-06 22:50 28.19658 46.60533 31956 ft 451 kts 283°
2026-05-06 22:50 28.21863 46.53877 31956 ft 451 kts 283°
2026-05-06 22:51 28.24050 46.47260 31959 ft 451 kts 283°
2026-05-06 22:51 28.26251 46.40594 31963 ft 451 kts 283°
2026-05-06 22:52 28.28449 46.33926 31962 ft 451 kts 283°
2026-05-06 22:52 28.30645 46.27251 31964 ft 451 kts 283°
2026-05-06 22:53 28.32838 46.20572 31983 ft 451 kts 283°
2026-05-06 22:53 28.35015 46.13930 31966 ft 452 kts 283°
2026-05-06 22:54 28.37281 46.07256 31965 ft 454 kts 285°
2026-05-06 22:54 28.39794 46.00615 31965 ft 455 kts 286°
2026-05-06 22:55 28.42297 45.94054 31966 ft 455 kts 285°
2026-05-06 22:55 28.44778 45.87430 31966 ft 455 kts 285°
2026-05-06 22:56 28.47235 45.80801 31969 ft 455 kts 285°
2026-05-06 22:56 28.49687 45.74164 31978 ft 455 kts 285°
2026-05-06 22:57 28.52136 45.67524 31970 ft 455 kts 285°
2026-05-06 22:57 28.54570 45.60919 31977 ft 455 kts 285°
2026-05-06 22:58 28.57010 45.54285 31978 ft 455 kts 285°
2026-05-06 22:58 28.59453 45.47633 31979 ft 455 kts 285°
2026-05-06 22:59 28.61494 45.42064 31982 ft 455 kts 285°
2026-05-06 22:59 28.63910 45.35463 31988 ft 455 kts 285°
2026-05-06 23:00 28.66347 45.28791 31990 ft 455 kts 285°
2026-05-06 23:00 28.68776 45.22130 31990 ft 455 kts 285°
2026-05-06 23:01 28.71204 45.15460 31991 ft 456 kts 285°
2026-05-06 23:01 28.73634 45.08770 31994 ft 456 kts 285°
2026-05-06 23:02 28.76058 45.02088 31996 ft 456 kts 285°
2026-05-06 23:02 28.78464 44.95444 31999 ft 456 kts 285°
2026-05-06 23:03 28.80880 44.88757 31998 ft 456 kts 285°
2026-05-06 23:03 28.83296 44.82058 32001 ft 456 kts 285°
2026-05-06 23:04 28.85816 44.75398 32001 ft 461 kts 290°
2026-05-06 23:04 28.89295 44.69148 32004 ft 469 kts 297°
2026-05-06 23:05 28.93051 44.63037 32003 ft 470 kts 297°
2026-05-06 23:05 28.96841 44.56948 32007 ft 470 kts 297°
2026-05-06 23:06 29.00617 44.50846 32010 ft 471 kts 297°
2026-05-06 23:06 29.04362 44.44760 32009 ft 471 kts 297°
2026-05-06 23:07 29.08128 44.38623 32009 ft 471 kts 297°
2026-05-06 23:07 29.11872 44.32512 32017 ft 471 kts 297°
2026-05-06 23:08 29.15626 44.26378 32014 ft 471 kts 297°
2026-05-06 23:08 29.19378 44.20239 32006 ft 471 kts 297°
2026-05-06 23:09 29.23134 44.14083 32027 ft 471 kts 297°
2026-05-06 23:09 29.26878 44.07940 32022 ft 470 kts 297°
2026-05-06 23:10 29.30595 44.01831 32032 ft 469 kts 297°
2026-05-06 23:10 29.34317 43.95704 32017 ft 468 kts 297°
2026-05-06 23:11 29.38040 43.89565 32018 ft 468 kts 297°
2026-05-06 23:11 29.41756 43.83429 32018 ft 468 kts 296°
2026-05-06 23:12 29.45463 43.77300 32020 ft 467 kts 297°
2026-05-06 23:12 29.49166 43.71168 32017 ft 467 kts 296°
2026-05-06 23:13 29.52859 43.65043 32021 ft 467 kts 296°
2026-05-06 23:13 29.56560 43.58896 31996 ft 466 kts 297°
2026-05-06 23:14 29.60225 43.52801 31995 ft 466 kts 297°
2026-05-06 23:14 29.63895 43.46642 31994 ft 465 kts 295°
2026-05-06 23:15 29.67390 43.40402 31988 ft 463 kts 295°
2026-05-06 23:15 29.70841 43.34151 32012 ft 463 kts 295°
2026-05-06 23:16 29.74306 43.27921 32001 ft 463 kts 295°
2026-05-06 23:16 29.77790 43.21688 32016 ft 464 kts 295°
2026-05-06 23:17 29.81277 43.15449 32014 ft 463 kts 295°
2026-05-06 23:17 29.84765 43.09197 32016 ft 463 kts 295°
2026-05-06 23:18 29.88248 43.02940 32014 ft 463 kts 295°
2026-05-06 23:18 29.91725 42.96687 32019 ft 463 kts 295°
2026-05-06 23:19 29.95199 42.90429 32036 ft 462 kts 295°
2026-05-06 23:19 29.98648 42.84210 32020 ft 462 kts 295°
2026-05-06 23:20 30.02100 42.77971 32018 ft 462 kts 295°
2026-05-06 23:20 30.05558 42.71709 32018 ft 462 kts 295°
2026-05-06 23:21 30.09013 42.65446 32018 ft 462 kts 295°
2026-05-06 23:21 30.12445 42.59215 32023 ft 462 kts 296°
2026-05-06 23:22 30.15886 42.52958 32017 ft 461 kts 296°
2026-05-06 23:22 30.19319 42.46707 32018 ft 461 kts 295°
2026-05-06 23:23 30.22757 42.40435 32039 ft 461 kts 296°
2026-05-06 23:23 30.26187 42.34170 32018 ft 461 kts 296°
2026-05-06 23:24 30.29606 42.27912 32021 ft 461 kts 296°
2026-05-06 23:24 30.33032 42.21634 32021 ft 460 kts 296°
2026-05-06 23:25 30.36449 42.15361 32022 ft 460 kts 296°
2026-05-06 23:25 30.39866 42.09080 32019 ft 461 kts 296°
2026-05-06 23:26 30.43278 42.02796 32019 ft 461 kts 296°
2026-05-06 23:26 30.46684 41.96516 32022 ft 461 kts 296°
2026-05-06 23:27 30.50077 41.90249 32019 ft 461 kts 296°
2026-05-06 23:27 30.53484 41.83945 32020 ft 461 kts 296°
2026-05-06 23:28 30.56892 41.77631 32023 ft 461 kts 296°
2026-05-06 23:28 30.60295 41.71312 32025 ft 462 kts 296°
2026-05-06 23:29 30.63703 41.64977 32012 ft 462 kts 296°
2026-05-06 23:29 30.67110 41.58634 32030 ft 462 kts 296°
2026-05-06 23:30 30.70515 41.52282 32023 ft 462 kts 296°
2026-05-06 23:30 30.73887 41.45984 32027 ft 462 kts 296°
2026-05-06 23:31 30.77279 41.39639 32026 ft 462 kts 296°
2026-05-06 23:31 30.80667 41.33289 32034 ft 462 kts 296°
2026-05-06 23:32 30.84058 41.26925 32025 ft 462 kts 296°
2026-05-06 23:32 30.87437 41.20571 32021 ft 462 kts 296°
2026-05-06 23:33 30.90813 41.14214 32021 ft 461 kts 296°
2026-05-06 23:33 30.93992 41.07747 32031 ft 458 kts 292°
2026-05-06 23:34 30.96938 41.01154 32034 ft 458 kts 292°
2026-05-06 23:34 30.99877 40.94614 32034 ft 458 kts 292°
2026-05-06 23:35 31.02877 40.88052 32035 ft 458 kts 293°
2026-05-06 23:35 31.05888 40.81505 32034 ft 458 kts 293°
2026-05-06 23:36 31.08890 40.74971 32034 ft 458 kts 292°
2026-05-06 23:36 31.11901 40.68399 32037 ft 458 kts 292°
2026-05-06 23:37 31.14907 40.61822 32039 ft 458 kts 292°
2026-05-06 23:37 31.17885 40.55296 32046 ft 458 kts 292°
2026-05-06 23:38 31.20877 40.48728 32042 ft 458 kts 292°
2026-05-06 23:38 31.23867 40.42150 32045 ft 458 kts 292°
2026-05-06 23:39 31.26852 40.35574 32046 ft 458 kts 292°
2026-05-06 23:39 31.29834 40.28993 32048 ft 458 kts 292°
2026-05-06 23:40 31.32811 40.22411 32048 ft 457 kts 292°
2026-05-06 23:40 31.35782 40.15831 32048 ft 457 kts 292°
2026-05-06 23:41 31.38751 40.09244 32053 ft 457 kts 292°
2026-05-06 23:41 31.41215 40.03768 32053 ft 457 kts 292°
2026-05-06 23:42 31.44659 39.96102 32042 ft 458 kts 292°
2026-05-06 23:42 31.47620 39.89497 32062 ft 457 kts 292°
2026-05-06 23:43 31.50096 39.83965 32066 ft 457 kts 292°
2026-05-06 23:43 31.53028 39.77406 32056 ft 457 kts 292°
2026-05-06 23:44 31.55979 39.70790 32058 ft 457 kts 292°
2026-05-06 23:44 31.58922 39.64180 32057 ft 457 kts 292°
2026-05-06 23:45 31.61862 39.57566 32077 ft 457 kts 292°
2026-05-06 23:45 31.64802 39.50941 32058 ft 457 kts 292°
2026-05-06 23:46 31.67735 39.44320 32062 ft 457 kts 292°
2026-05-06 23:46 31.70641 39.37746 32062 ft 456 kts 292°
2026-05-06 23:47 31.73564 39.31124 32064 ft 456 kts 292°
2026-05-06 23:47 31.76478 39.24511 32064 ft 455 kts 292°
2026-05-06 23:48 31.80057 39.18296 32077 ft 466 kts 307°
2026-05-06 23:48 31.85158 39.13446 32068 ft 480 kts 324°
2026-05-06 23:49 31.91106 39.09748 32064 ft 484 kts 327°
2026-05-06 23:49 31.97119 39.06266 32067 ft 484 kts 328°
2026-05-06 23:50 32.03161 39.02755 32070 ft 484 kts 328°
2026-05-06 23:50 32.12218 38.97436 32068 ft 483 kts 328°
2026-05-06 23:51 32.18226 38.93887 32069 ft 483 kts 328°
2026-05-06 23:51 32.24224 38.90337 32067 ft 483 kts 327°
2026-05-06 23:52 32.30235 38.86775 32070 ft 483 kts 328°
2026-05-06 23:52 32.36204 38.83234 32084 ft 483 kts 328°
2026-05-06 23:53 32.42214 38.79665 32072 ft 482 kts 328°
2026-05-06 23:53 32.48211 38.76098 32070 ft 482 kts 328°
2026-05-06 23:54 32.54202 38.72528 32070 ft 482 kts 327°
2026-05-06 23:54 32.60561 38.69766 32067 ft 494 kts 343°
2026-05-06 23:55 32.67467 38.68940 32067 ft 501 kts 351°
2026-05-06 23:55 32.74415 38.68617 32070 ft 502 kts 352°
2026-05-06 23:56 32.81403 38.68355 32069 ft 502 kts 352°
2026-05-06 23:56 32.88386 38.68062 32073 ft 502 kts 352°
2026-05-06 23:57 32.95374 38.67744 32074 ft 502 kts 351°
2026-05-06 23:57 33.02354 38.67419 32074 ft 502 kts 351°
2026-05-06 23:58 33.09327 38.67098 32079 ft 502 kts 351°
2026-05-06 23:58 33.16328 38.66761 32077 ft 502 kts 351°
2026-05-06 23:59 33.23318 38.66425 32073 ft 502 kts 351°
2026-05-06 23:59 33.30302 38.66093 32077 ft 502 kts 351°
2026-05-07 00:00 33.37268 38.65791 32081 ft 503 kts 351°
2026-05-07 00:00 33.44267 38.65517 32082 ft 501 kts 349°
2026-05-07 00:01 33.50957 38.63904 32081 ft 482 kts 332°
2026-05-07 00:01 33.57175 38.60977 32078 ft 479 kts 329°
2026-05-07 00:02 33.63299 38.57855 32079 ft 478 kts 329°
2026-05-07 00:02 33.69421 38.54708 32079 ft 479 kts 329°
2026-05-07 00:03 33.75554 38.51576 32078 ft 479 kts 329°
2026-05-07 00:03 33.81677 38.48459 32079 ft 480 kts 329°
2026-05-07 00:04 33.87843 38.45319 32079 ft 480 kts 329°
2026-05-07 00:04 33.94021 38.42168 32079 ft 480 kts 329°
2026-05-07 00:05 34.00172 38.39025 32082 ft 480 kts 329°
2026-05-07 00:05 34.06287 38.35894 32083 ft 480 kts 329°
2026-05-07 00:06 34.12447 38.32736 32078 ft 480 kts 329°
2026-05-07 00:06 34.18599 38.29577 32082 ft 480 kts 329°
2026-05-07 00:07 34.24752 38.26411 32095 ft 480 kts 329°
2026-05-07 00:07 34.30895 38.23247 32086 ft 480 kts 329°
2026-05-07 00:08 34.37047 38.20072 32083 ft 480 kts 329°
2026-05-07 00:08 34.43200 38.16892 32083 ft 480 kts 329°
2026-05-07 00:09 34.49345 38.13710 32116 ft 480 kts 329°
2026-05-07 00:09 34.55486 38.10494 32090 ft 481 kts 328°
2026-05-07 00:10 34.61592 38.07172 32094 ft 480 kts 328°
2026-05-07 00:10 34.67641 38.03864 32096 ft 480 kts 328°
2026-05-07 00:11 34.73737 38.00540 32106 ft 480 kts 328°
2026-05-07 00:11 34.79848 37.97213 32103 ft 481 kts 328°
2026-05-07 00:12 34.85969 37.93871 32108 ft 480 kts 329°
2026-05-07 00:12 34.92072 37.90539 32107 ft 480 kts 329°
2026-05-07 00:13 34.98174 37.87207 32103 ft 480 kts 329°
2026-05-07 00:13 35.04243 37.83883 32109 ft 480 kts 329°
2026-05-07 00:14 35.10341 37.80538 32110 ft 480 kts 329°
2026-05-07 00:14 35.16446 37.77184 32108 ft 480 kts 329°
2026-05-07 00:15 35.22538 37.73831 32106 ft 480 kts 329°
2026-05-07 00:15 35.28605 37.70484 32118 ft 480 kts 330°
2026-05-07 00:16 35.34697 37.67120 32102 ft 480 kts 330°
2026-05-07 00:16 35.40777 37.63756 32098 ft 480 kts 330°
2026-05-07 00:17 35.46855 37.60389 32102 ft 480 kts 330°
2026-05-07 00:17 35.52939 37.57012 32098 ft 479 kts 330°
2026-05-07 00:18 35.59016 37.53633 32099 ft 480 kts 329°
2026-05-07 00:18 35.65106 37.50241 32099 ft 480 kts 329°
2026-05-07 00:19 35.71187 37.46848 32099 ft 479 kts 330°
2026-05-07 00:19 35.77260 37.43453 32105 ft 478 kts 330°
2026-05-07 00:20 35.83287 37.40081 32097 ft 479 kts 330°
2026-05-07 00:20 35.89345 37.36685 32102 ft 479 kts 330°
2026-05-07 00:21 35.95413 37.33278 32110 ft 479 kts 330°
2026-05-07 00:21 36.01507 37.29922 32122 ft 479 kts 331°
2026-05-07 00:22 36.07618 37.26601 32126 ft 480 kts 331°
2026-05-07 00:22 36.13731 37.23268 32138 ft 480 kts 331°
2026-05-07 00:23 36.19545 37.19363 32132 ft 471 kts 320°
2026-05-07 00:23 36.24821 37.14654 32129 ft 470 kts 319°
2026-05-07 00:24 36.30053 37.09779 32123 ft 471 kts 319°
2026-05-07 00:24 36.35295 37.04867 32114 ft 471 kts 319°
2026-05-07 00:25 36.40541 36.99966 32106 ft 471 kts 319°
2026-05-07 00:25 36.44888 36.95885 32104 ft 471 kts 319°
2026-05-07 00:26 36.50952 36.90169 32101 ft 470 kts 319°
2026-05-07 00:26 36.56166 36.85248 32097 ft 470 kts 319°
2026-05-07 00:27 36.60509 36.81147 32105 ft 470 kts 319°
2026-05-07 00:27 36.65732 36.76208 32106 ft 471 kts 319°
2026-05-07 00:28 36.70953 36.71263 32112 ft 470 kts 319°
2026-05-07 00:28 36.76164 36.66319 32105 ft 470 kts 319°
2026-05-07 00:29 36.81334 36.61397 32104 ft 470 kts 319°
2026-05-07 00:30 36.91645 36.51364 32111 ft 470 kts 319°
2026-05-07 00:30 36.96812 36.46333 32111 ft 469 kts 319°
2026-05-07 00:31 37.01975 36.41323 32106 ft 469 kts 319°
2026-05-07 00:31 37.07103 36.36335 32108 ft 469 kts 319°
2026-05-07 00:32 37.12267 36.31303 32107 ft 469 kts 319°
2026-05-07 00:32 37.17412 36.26281 32109 ft 469 kts 319°
2026-05-07 00:33 37.22564 36.21243 32114 ft 468 kts 319°
2026-05-07 00:33 37.27689 36.16224 32091 ft 467 kts 319°
2026-05-07 00:34 37.32820 36.11189 32115 ft 467 kts 319°
2026-05-07 00:34 37.37910 36.06185 32114 ft 467 kts 319°
2026-05-07 00:35 37.43028 36.01145 32116 ft 467 kts 319°
2026-05-07 00:35 37.48146 35.96096 32111 ft 467 kts 319°
2026-05-07 00:36 37.53254 35.91048 32118 ft 466 kts 319°
2026-05-07 00:36 37.58366 35.85987 32118 ft 466 kts 319°
2026-05-07 00:37 37.63473 35.80922 32124 ft 466 kts 319°
2026-05-07 00:37 37.68575 35.75854 32128 ft 466 kts 319°
2026-05-07 00:38 37.73633 35.70818 32134 ft 466 kts 319°
2026-05-07 00:38 37.78713 35.65752 32137 ft 464 kts 319°
2026-05-07 00:39 37.83771 35.60701 32143 ft 463 kts 319°
2026-05-07 00:39 37.88820 35.55649 32143 ft 463 kts 319°
2026-05-07 00:40 37.93862 35.50592 32151 ft 463 kts 319°
2026-05-07 00:40 37.98902 35.45530 32156 ft 461 kts 319°
2026-05-07 00:41 38.03926 35.40474 32149 ft 460 kts 319°
2026-05-07 00:41 38.08904 35.35456 32155 ft 458 kts 319°
2026-05-07 00:42 38.13890 35.30422 32157 ft 458 kts 319°
2026-05-07 00:42 38.18870 35.25384 32159 ft 458 kts 319°
2026-05-07 00:43 38.23846 35.20339 32158 ft 456 kts 319°
2026-05-07 00:43 38.28802 35.15307 32160 ft 455 kts 319°
2026-05-07 00:44 38.33759 35.10266 32159 ft 455 kts 319°
2026-05-07 00:44 38.38698 35.05233 32158 ft 454 kts 319°
2026-05-07 00:45 38.43611 35.00234 32164 ft 454 kts 319°
2026-05-07 00:45 38.48551 34.95208 32161 ft 453 kts 319°
2026-05-07 00:46 38.53470 34.90195 32159 ft 452 kts 319°
2026-05-07 00:46 38.58402 34.85157 32159 ft 453 kts 319°
2026-05-07 00:47 38.63319 34.80123 32162 ft 453 kts 319°
2026-05-07 00:47 38.68214 34.75102 32149 ft 453 kts 319°
2026-05-07 00:48 38.73160 34.70018 32163 ft 453 kts 320°
2026-05-07 00:48 38.78036 34.64999 32144 ft 452 kts 320°
2026-05-07 00:49 38.82945 34.59937 32164 ft 452 kts 320°
2026-05-07 00:49 38.87847 34.54873 32159 ft 452 kts 320°
2026-05-07 00:50 38.92752 34.49796 32166 ft 452 kts 320°
2026-05-07 00:50 38.97661 34.44703 32155 ft 452 kts 320°
2026-05-07 00:51 39.02555 34.39620 32152 ft 452 kts 320°
2026-05-07 00:51 39.07411 34.34566 32152 ft 452 kts 320°
2026-05-07 00:52 39.12251 34.29412 32144 ft 451 kts 316°
2026-05-07 00:52 39.16494 34.23442 32143 ft 451 kts 310°
2026-05-07 00:53 39.20539 34.17254 32141 ft 451 kts 310°
2026-05-07 00:53 39.24545 34.11037 32152 ft 450 kts 310°
2026-05-07 00:54 39.28561 34.04804 32141 ft 451 kts 311°
2026-05-07 00:54 39.32555 33.98617 32140 ft 451 kts 311°
2026-05-07 00:55 39.36565 33.92394 32131 ft 451 kts 311°
2026-05-07 00:55 39.40581 33.86153 32147 ft 450 kts 311°
2026-05-07 00:56 39.44584 33.79919 32130 ft 450 kts 311°
2026-05-07 00:56 39.48569 33.73658 32148 ft 450 kts 310°
2026-05-07 00:57 39.52488 33.67318 32121 ft 450 kts 310°
2026-05-07 00:57 39.56375 33.61004 32129 ft 451 kts 310°
2026-05-07 00:58 39.60340 33.54637 32132 ft 450 kts 311°
2026-05-07 00:58 39.64322 33.48435 32134 ft 450 kts 311°
2026-05-07 00:59 39.70340 33.39064 32129 ft 450 kts 311°
2026-05-07 01:00 39.74340 33.32789 32126 ft 450 kts 311°
2026-05-07 01:00 39.78330 33.26507 32130 ft 450 kts 311°
2026-05-07 01:01 39.82311 33.20227 32128 ft 450 kts 311°
2026-05-07 01:01 39.86294 33.13933 32124 ft 450 kts 311°
2026-05-07 01:02 39.90257 33.07657 32130 ft 451 kts 311°
2026-05-07 01:02 39.94259 33.01306 32129 ft 451 kts 311°
2026-05-07 01:03 39.98211 32.95024 32130 ft 451 kts 311°
2026-05-07 01:03 40.02185 32.88694 32114 ft 451 kts 311°
2026-05-07 01:04 40.06155 32.82356 32140 ft 451 kts 311°
2026-05-07 01:04 40.09995 32.75868 32146 ft 452 kts 307°
2026-05-07 01:05 40.13512 32.69055 32146 ft 453 kts 306°
2026-05-07 01:05 40.17016 32.62220 32144 ft 453 kts 307°
2026-05-07 01:06 40.20578 32.55414 32151 ft 453 kts 307°
2026-05-07 01:06 40.24142 32.48665 32152 ft 453 kts 307°
2026-05-07 01:07 40.27727 32.41872 32157 ft 453 kts 307°
2026-05-07 01:07 40.31310 32.35064 32149 ft 454 kts 307°
2026-05-07 01:08 40.34888 32.28245 32151 ft 454 kts 307°
2026-05-07 01:08 40.38464 32.21414 32151 ft 454 kts 307°
2026-05-07 01:09 40.42036 32.14577 32148 ft 454 kts 307°
2026-05-07 01:09 40.45588 32.07763 32149 ft 455 kts 307°
2026-05-07 01:10 40.49149 32.00880 32156 ft 455 kts 307°
2026-05-07 01:10 40.52704 31.93998 32154 ft 455 kts 307°
2026-05-07 01:11 40.55659 31.88271 32153 ft 455 kts 307°
2026-05-07 01:11 40.58712 31.80931 32153 ft 461 kts 294°
2026-05-07 01:12 40.60841 31.72974 32151 ft 463 kts 292°
2026-05-07 01:12 40.62828 31.64898 32151 ft 464 kts 291°
2026-05-07 01:13 40.64798 31.56794 32150 ft 464 kts 291°
2026-05-07 01:13 40.66779 31.48683 32144 ft 464 kts 291°
2026-05-07 01:14 40.68760 31.40590 32144 ft 464 kts 291°
2026-05-07 01:14 40.70739 31.32489 32146 ft 465 kts 291°
2026-05-07 01:15 40.72698 31.24433 32140 ft 465 kts 291°
2026-05-07 01:15 40.74669 31.16312 32142 ft 464 kts 291°
2026-05-07 01:16 40.76629 31.08195 32122 ft 464 kts 291°
2026-05-07 01:16 40.78578 31.00091 32132 ft 463 kts 291°
2026-05-07 01:17 40.80525 30.91974 32137 ft 463 kts 291°
2026-05-07 01:17 40.82466 30.83857 32128 ft 463 kts 291°
2026-05-07 01:18 40.84397 30.75745 32119 ft 463 kts 291°
2026-05-07 01:18 40.86314 30.67672 32123 ft 463 kts 291°
2026-05-07 01:19 40.88062 30.59414 32120 ft 465 kts 287°
2026-05-07 01:19 40.89460 30.51056 32110 ft 466 kts 286°
2026-05-07 01:20 40.90848 30.42753 32120 ft 465 kts 287°
2026-05-07 01:20 40.92299 30.34411 32121 ft 465 kts 287°
2026-05-07 01:21 40.93771 30.26049 32118 ft 465 kts 287°
2026-05-07 01:21 40.95238 30.17721 32114 ft 464 kts 287°
2026-05-07 01:22 40.96694 30.09403 32129 ft 463 kts 287°
2026-05-07 01:22 40.98140 30.01082 32112 ft 464 kts 287°
2026-05-07 01:23 40.99572 29.92812 32119 ft 464 kts 287°
2026-05-07 01:23 41.00983 29.84479 32107 ft 463 kts 287°
2026-05-07 01:24 41.02384 29.76150 32108 ft 463 kts 287°
2026-05-07 01:24 41.03787 29.67799 32105 ft 463 kts 287°
2026-05-07 01:25 41.05172 29.59518 32106 ft 463 kts 287°
2026-05-07 01:25 41.06569 29.51200 32099 ft 462 kts 287°
2026-05-07 01:26 41.07966 29.42880 32102 ft 462 kts 287°
2026-05-07 01:26 41.09359 29.34542 32101 ft 462 kts 287°
2026-05-07 01:27 41.10739 29.26216 32100 ft 462 kts 287°
2026-05-07 01:27 41.12175 29.17969 32112 ft 459 kts 291°
2026-05-07 01:28 41.14754 29.10336 32102 ft 450 kts 305°
2026-05-07 01:28 41.18126 29.03345 32084 ft 450 kts 307°
2026-05-07 01:29 41.21609 28.96444 32097 ft 450 kts 307°
2026-05-07 01:29 41.25102 28.89511 32101 ft 450 kts 307°
2026-05-07 01:30 41.28548 28.82609 32097 ft 451 kts 307°
2026-05-07 01:30 41.32003 28.75655 32099 ft 450 kts 307°
2026-05-07 01:31 41.35451 28.68695 32100 ft 451 kts 306°
2026-05-07 01:31 41.38906 28.61708 32102 ft 451 kts 306°
2026-05-07 01:32 41.42347 28.54733 32101 ft 451 kts 306°
2026-05-07 01:32 41.45797 28.47724 32083 ft 451 kts 306°
2026-05-07 01:33 41.49361 28.40839 32092 ft 449 kts 312°
2026-05-07 01:33 41.53608 28.34837 32096 ft 447 kts 317°
2026-05-07 01:34 41.58033 28.28993 32099 ft 447 kts 317°
2026-05-07 01:34 41.62508 28.23137 32085 ft 448 kts 317°
2026-05-07 01:35 41.66917 28.17334 32098 ft 448 kts 317°
2026-05-07 01:35 41.71352 28.11466 32098 ft 448 kts 317°
2026-05-07 01:36 41.75783 28.05585 32092 ft 448 kts 317°
2026-05-07 01:36 41.80213 27.99695 32096 ft 448 kts 317°
2026-05-07 01:37 41.84609 27.93838 32104 ft 448 kts 317°
2026-05-07 01:37 41.89021 27.87948 32092 ft 448 kts 317°
2026-05-07 01:38 41.93446 27.82029 32079 ft 448 kts 317°
2026-05-07 01:38 41.97864 27.76109 32089 ft 449 kts 317°
2026-05-07 01:39 42.02251 27.70132 32086 ft 449 kts 316°
2026-05-07 01:39 42.06618 27.64121 32085 ft 449 kts 316°
2026-05-07 01:40 42.10985 27.58111 32085 ft 450 kts 316°
2026-05-07 01:40 42.15374 27.52069 32093 ft 450 kts 316°
2026-05-07 01:41 42.19754 27.46034 32082 ft 450 kts 316°
2026-05-07 01:41 42.24129 27.39993 32091 ft 450 kts 316°
2026-05-07 01:42 42.28485 27.33966 32094 ft 451 kts 315°
2026-05-07 01:42 42.32863 27.27893 32094 ft 451 kts 315°
2026-05-07 01:43 42.37246 27.21800 32087 ft 451 kts 315°
2026-05-07 01:43 42.41620 27.15708 32077 ft 451 kts 315°
2026-05-07 01:44 42.46006 27.09586 32088 ft 453 kts 315°
2026-05-07 01:44 42.50389 27.03454 32085 ft 453 kts 315°
2026-05-07 01:45 42.54766 26.97318 32087 ft 453 kts 315°
2026-05-07 01:45 42.59118 26.91205 32068 ft 454 kts 315°
2026-05-07 01:46 42.63509 26.85023 32084 ft 455 kts 315°
2026-05-07 01:46 42.67905 26.78819 32085 ft 455 kts 315°
2026-05-07 01:47 42.72294 26.72613 32059 ft 455 kts 315°
2026-05-07 01:47 42.76685 26.66391 32059 ft 456 kts 314°
2026-05-07 01:48 42.80933 26.59974 32061 ft 457 kts 307°
2026-05-07 01:48 42.84226 26.52556 32074 ft 459 kts 300°
2026-05-07 01:49 42.87213 26.44911 32042 ft 459 kts 299°
2026-05-07 01:49 42.90167 26.37186 32066 ft 459 kts 299°
2026-05-07 01:50 42.93129 26.29453 32060 ft 459 kts 299°
2026-05-07 01:50 42.96092 26.21734 32049 ft 459 kts 299°
2026-05-07 01:51 42.99051 26.14019 32045 ft 459 kts 298°
2026-05-07 01:51 43.01988 26.06343 32035 ft 458 kts 298°
2026-05-07 01:52 43.04934 25.98617 32026 ft 458 kts 298°
2026-05-07 01:52 43.07873 25.90888 32023 ft 458 kts 298°
2026-05-07 01:53 43.10812 25.83140 32020 ft 458 kts 298°
2026-05-07 01:53 43.13724 25.75440 32021 ft 458 kts 298°
2026-05-07 01:54 43.17044 25.68033 32020 ft 456 kts 306°
2026-05-07 01:54 43.20745 25.60953 32020 ft 456 kts 307°
2026-05-07 01:55 43.24495 25.53915 32018 ft 457 kts 306°
2026-05-07 01:55 43.27612 25.48057 32017 ft 457 kts 306°
2026-05-07 01:56 43.31350 25.40998 32014 ft 457 kts 306°
2026-05-07 01:56 43.35081 25.33923 32011 ft 457 kts 306°
2026-05-07 01:57 43.38794 25.26862 32004 ft 455 kts 306°
2026-05-07 01:57 43.42492 25.19815 32003 ft 454 kts 306°
2026-05-07 01:58 43.46184 25.12765 32004 ft 454 kts 306°
2026-05-07 01:58 43.49875 25.05697 31998 ft 454 kts 306°
2026-05-07 01:59 43.53524 24.98694 32002 ft 452 kts 306°
2026-05-07 01:59 43.57185 24.91651 32012 ft 451 kts 306°
2026-05-07 02:00 43.60841 24.84600 31996 ft 452 kts 306°
2026-05-07 02:00 43.64497 24.77534 31998 ft 452 kts 305°
2026-05-07 02:01 43.68138 24.70478 32004 ft 451 kts 305°
2026-05-07 02:01 43.71780 24.63401 32002 ft 451 kts 305°
2026-05-07 02:02 43.75412 24.56329 32002 ft 451 kts 305°
2026-05-07 02:02 43.79126 24.49305 32000 ft 453 kts 306°
2026-05-07 02:03 43.82930 24.42345 32005 ft 455 kts 306°
2026-05-07 02:03 43.86748 24.35329 32003 ft 456 kts 306°
2026-05-07 02:04 43.90546 24.28289 32003 ft 456 kts 306°
2026-05-07 02:04 43.94332 24.21234 32013 ft 456 kts 306°
2026-05-07 02:05 43.98117 24.14162 32010 ft 456 kts 306°
2026-05-07 02:05 44.01907 24.07065 32010 ft 456 kts 306°
2026-05-07 02:06 44.05669 24.00004 32010 ft 456 kts 305°
2026-05-07 02:06 44.09453 23.92888 32015 ft 457 kts 305°
2026-05-07 02:07 44.13235 23.85755 32017 ft 458 kts 304°
2026-05-07 02:07 44.18900 23.75038 32018 ft 458 kts 304°
2026-05-07 02:08 44.22653 23.67918 32022 ft 457 kts 304°
2026-05-07 02:08 44.26411 23.60771 32021 ft 456 kts 304°
2026-05-07 02:09 44.30156 23.53629 32021 ft 456 kts 304°
2026-05-07 02:09 44.33901 23.46468 32021 ft 456 kts 304°
2026-05-07 02:10 44.37638 23.39308 32026 ft 456 kts 304°
2026-05-07 02:10 44.41375 23.32129 32029 ft 456 kts 304°
2026-05-07 02:11 44.45107 23.24941 32028 ft 456 kts 304°
2026-05-07 02:11 44.48830 23.17753 32028 ft 456 kts 303°
2026-05-07 02:12 44.52524 23.10603 32028 ft 456 kts 303°
2026-05-07 02:12 44.56243 23.03388 32028 ft 455 kts 303°
2026-05-07 02:13 44.59953 22.96171 32030 ft 456 kts 303°
2026-05-07 02:13 44.63663 22.88936 32028 ft 456 kts 303°
2026-05-07 02:14 44.67361 22.81710 32026 ft 456 kts 303°
2026-05-07 02:14 44.71058 22.74462 32025 ft 456 kts 303°
2026-05-07 02:15 44.74723 22.67260 32019 ft 456 kts 303°
2026-05-07 02:15 44.78407 22.60007 32027 ft 456 kts 303°
2026-05-07 02:16 44.82097 22.52734 32031 ft 456 kts 303°
2026-05-07 02:16 44.85776 22.45447 32042 ft 456 kts 303°
2026-05-07 02:17 44.89446 22.38163 32024 ft 455 kts 303°
2026-05-07 02:17 44.93110 22.30876 32019 ft 455 kts 303°
2026-05-07 02:18 44.96776 22.23569 32022 ft 455 kts 302°
2026-05-07 02:18 45.00403 22.16319 32014 ft 454 kts 302°
2026-05-07 02:19 45.04053 22.09005 32004 ft 454 kts 302°
2026-05-07 02:19 45.07690 22.01697 32003 ft 454 kts 302°
2026-05-07 02:20 45.11328 21.94372 31998 ft 455 kts 302°
2026-05-07 02:20 45.14964 21.87029 31990 ft 455 kts 302°
2026-05-07 02:21 45.18576 21.79716 31986 ft 455 kts 302°
2026-05-07 02:21 45.22205 21.72350 31975 ft 455 kts 302°
2026-05-07 02:22 45.25831 21.64975 31978 ft 455 kts 301°
2026-05-07 02:22 45.29432 21.57626 31973 ft 456 kts 301°
2026-05-07 02:23 45.33052 21.50219 31982 ft 456 kts 301°
2026-05-07 02:23 45.36667 21.42805 31981 ft 456 kts 301°
2026-05-07 02:24 45.40286 21.35366 31977 ft 457 kts 301°
2026-05-07 02:24 45.43902 21.27911 31974 ft 458 kts 301°
2026-05-07 02:25 45.47517 21.20438 31968 ft 458 kts 301°
2026-05-07 02:25 45.51133 21.12943 31964 ft 458 kts 301°
2026-05-07 02:26 45.54723 21.05487 31966 ft 459 kts 300°
2026-05-07 02:26 45.58340 20.97950 31964 ft 460 kts 300°
2026-05-07 02:27 45.61958 20.90390 31964 ft 460 kts 300°
2026-05-07 02:27 45.65546 20.82877 31964 ft 460 kts 300°
2026-05-07 02:28 45.69147 20.75314 31967 ft 460 kts 300°
2026-05-07 02:28 45.72736 20.67757 31965 ft 461 kts 300°
2026-05-07 02:29 45.76337 20.60153 31966 ft 462 kts 300°
2026-05-07 02:29 45.79939 20.52528 31971 ft 461 kts 300°
2026-05-07 02:30 45.83533 20.44900 31964 ft 462 kts 300°
2026-05-07 02:30 45.87133 20.37234 31966 ft 464 kts 300°
2026-05-07 02:31 45.90731 20.29556 31966 ft 464 kts 300°
2026-05-07 02:31 45.94332 20.21851 31963 ft 464 kts 300°
2026-05-07 02:32 45.97924 20.14144 31970 ft 464 kts 299°
2026-05-07 02:32 46.01429 20.06599 31968 ft 466 kts 299°
2026-05-07 02:33 46.05074 19.98733 31960 ft 466 kts 299°
2026-05-07 02:33 46.08665 19.90965 31960 ft 466 kts 299°
2026-05-07 02:34 46.12257 19.83171 31958 ft 466 kts 299°
2026-05-07 02:34 46.15817 19.75426 31958 ft 466 kts 299°
2026-05-07 02:35 46.19207 19.67488 31959 ft 463 kts 294°
2026-05-07 02:35 46.22240 19.59271 31954 ft 462 kts 294°
2026-05-07 02:36 46.25211 19.51022 31963 ft 463 kts 293°
2026-05-07 02:36 46.28177 19.42742 31949 ft 465 kts 293°
2026-05-07 02:37 46.31157 19.34419 31945 ft 465 kts 293°
2026-05-07 02:37 46.34133 19.26093 31946 ft 465 kts 293°
2026-05-07 02:38 46.37082 19.17818 31953 ft 465 kts 293°
2026-05-07 02:38 46.40050 19.09461 31938 ft 468 kts 292°
2026-05-07 02:39 46.43029 19.01051 31936 ft 468 kts 292°
2026-05-07 02:39 46.45995 18.92649 31935 ft 468 kts 292°
2026-05-07 02:40 46.48952 18.84246 31949 ft 468 kts 292°
2026-05-07 02:40 46.51417 18.77219 31930 ft 469 kts 292°
2026-05-07 02:41 46.54377 18.68755 31931 ft 470 kts 292°
2026-05-07 02:41 46.57331 18.60288 31930 ft 470 kts 292°
2026-05-07 02:42 46.60275 18.51817 31928 ft 470 kts 292°
2026-05-07 02:42 46.63221 18.43318 31932 ft 471 kts 291°
2026-05-07 02:43 46.66166 18.34785 31921 ft 471 kts 291°
2026-05-07 02:43 46.69085 18.26307 31922 ft 471 kts 291°
2026-05-07 02:44 46.72019 18.17756 31922 ft 471 kts 291°
2026-05-07 02:44 46.74948 18.09192 31922 ft 472 kts 291°
2026-05-07 02:45 46.77873 18.00609 31920 ft 473 kts 291°
2026-05-07 02:45 46.80794 17.92013 31928 ft 473 kts 291°
2026-05-07 02:46 46.83708 17.83408 31917 ft 472 kts 291°
2026-05-07 02:46 46.86598 17.74845 31907 ft 473 kts 291°
2026-05-07 02:47 46.89507 17.66194 31927 ft 474 kts 291°
2026-05-07 02:47 46.92414 17.57527 31903 ft 474 kts 291°
2026-05-07 02:48 46.95314 17.48850 31900 ft 474 kts 291°
2026-05-07 02:48 46.98208 17.40164 31910 ft 474 kts 291°
2026-05-07 02:49 47.01096 17.31465 31906 ft 474 kts 291°
2026-05-07 02:49 47.03974 17.22768 31904 ft 474 kts 291°
2026-05-07 02:50 47.06828 17.14111 31911 ft 474 kts 290°
2026-05-07 02:50 47.09688 17.05407 31909 ft 474 kts 290°
2026-05-07 02:51 47.12543 16.96691 31899 ft 474 kts 290°
2026-05-07 02:51 47.15394 16.87956 31898 ft 473 kts 290°
2026-05-07 02:52 47.18236 16.79219 31899 ft 473 kts 290°
2026-05-07 02:52 47.21074 16.70465 31915 ft 474 kts 290°
2026-05-07 02:53 47.23899 16.61723 31893 ft 473 kts 290°
2026-05-07 02:53 47.26718 16.52966 31892 ft 473 kts 290°
2026-05-07 02:54 47.29559 16.44225 31892 ft 474 kts 292°
2026-05-07 02:54 47.32806 16.35781 31893 ft 477 kts 295°
2026-05-07 02:55 47.36203 16.27365 31894 ft 477 kts 295°
2026-05-07 02:55 47.39538 16.18899 31892 ft 477 kts 294°
2026-05-07 02:56 47.42823 16.10380 31892 ft 477 kts 294°
2026-05-07 02:56 47.46081 16.01863 31912 ft 476 kts 294°
2026-05-07 02:57 47.49330 15.93347 31894 ft 474 kts 293°
2026-05-07 02:57 47.52564 15.84853 31900 ft 473 kts 293°
2026-05-07 02:58 47.55785 15.76361 31899 ft 473 kts 293°
2026-05-07 02:58 47.59000 15.67865 31906 ft 471 kts 293°
2026-05-07 02:59 47.62186 15.59426 31904 ft 468 kts 292°
2026-05-07 02:59 47.65335 15.51049 31907 ft 467 kts 292°
2026-05-07 03:00 47.68512 15.42562 31916 ft 468 kts 292°
2026-05-07 03:00 47.71642 15.34184 31906 ft 466 kts 292°
2026-05-07 03:01 47.74784 15.25740 31921 ft 468 kts 291°
2026-05-07 03:01 47.77932 15.17254 31917 ft 469 kts 291°
2026-05-07 03:02 47.81081 15.08745 31928 ft 469 kts 291°
2026-05-07 03:02 47.84224 15.00224 31926 ft 469 kts 291°
2026-05-07 03:03 47.87364 14.91681 31932 ft 470 kts 290°
2026-05-07 03:03 47.90523 14.83048 31932 ft 477 kts 291°
2026-05-07 03:04 47.93677 14.74406 31936 ft 477 kts 291°
2026-05-07 03:04 47.96850 14.65703 31935 ft 477 kts 291°
2026-05-07 03:05 48.00016 14.56985 31969 ft 478 kts 290°
2026-05-07 03:05 48.03181 14.48228 31935 ft 479 kts 290°
2026-05-07 03:06 48.06341 14.39462 31937 ft 479 kts 290°
2026-05-07 03:06 48.09498 14.30676 31937 ft 479 kts 290°
2026-05-07 03:07 48.12630 14.21930 31939 ft 479 kts 290°
2026-05-07 03:07 48.15771 14.13130 31938 ft 480 kts 290°
2026-05-07 03:08 48.18918 14.04280 31941 ft 480 kts 290°
2026-05-07 03:08 48.22050 13.95444 31940 ft 480 kts 290°
2026-05-07 03:09 48.25174 13.86601 31941 ft 480 kts 290°
2026-05-07 03:09 48.28294 13.77743 31945 ft 480 kts 290°
2026-05-07 03:10 48.31409 13.68860 31941 ft 481 kts 290°
2026-05-07 03:10 48.34497 13.60026 31944 ft 481 kts 290°
2026-05-07 03:11 48.37599 13.51121 31947 ft 481 kts 290°
2026-05-07 03:11 48.40703 13.42181 31943 ft 481 kts 291°
2026-05-07 03:12 48.43707 13.33191 31952 ft 478 kts 286°
2026-05-07 03:12 48.46237 13.23950 31943 ft 477 kts 285°
2026-05-07 03:13 48.48686 13.14656 31944 ft 477 kts 285°
2026-05-07 03:13 48.51116 13.05349 31984 ft 477 kts 285°
2026-05-07 03:14 48.53529 12.96096 31942 ft 477 kts 285°
2026-05-07 03:15 48.57178 12.82093 31944 ft 478 kts 285°
2026-05-07 03:15 48.59593 12.72760 31941 ft 478 kts 285°
2026-05-07 03:16 48.62008 12.63385 31944 ft 479 kts 285°
2026-05-07 03:16 48.64427 12.53965 31939 ft 480 kts 285°
2026-05-07 03:17 48.66837 12.44549 31939 ft 480 kts 285°
2026-05-07 03:17 48.69221 12.35198 31935 ft 480 kts 285°
2026-05-07 03:18 48.71613 12.25769 31972 ft 480 kts 285°
2026-05-07 03:18 48.74001 12.16317 31934 ft 481 kts 285°
2026-05-07 03:19 48.76860 12.07067 31932 ft 486 kts 291°
2026-05-07 03:19 48.80027 11.97960 31928 ft 487 kts 292°
2026-05-07 03:20 48.83219 11.88890 31916 ft 487 kts 292°
2026-05-07 03:20 48.86404 11.79784 31905 ft 488 kts 292°
2026-05-07 03:21 48.89553 11.70721 31910 ft 488 kts 292°
2026-05-07 03:21 48.92709 11.61599 31906 ft 488 kts 292°
2026-05-07 03:22 48.95858 11.52461 31896 ft 488 kts 292°
2026-05-07 03:22 48.99005 11.43293 31913 ft 489 kts 294°
2026-05-07 03:23 49.02154 11.34091 31906 ft 489 kts 294°
2026-05-07 03:23 49.05299 11.24871 31911 ft 489 kts 293°
2026-05-07 03:24 49.08430 11.15661 31912 ft 489 kts 293°
2026-05-07 03:24 49.11449 11.08323 31935 ft 495 kts 306°
2026-05-07 03:25 49.17082 10.99589 31923 ft 496 kts 314°
2026-05-07 03:25 49.21331 10.93580 31912 ft 496 kts 314°
2026-05-07 03:26 49.26415 10.86433 31912 ft 497 kts 314°
2026-05-07 03:26 49.31491 10.79235 31905 ft 497 kts 314°
2026-05-07 03:27 49.36029 10.71368 31901 ft 492 kts 304°
2026-05-07 03:27 49.40100 10.62909 31902 ft 491 kts 303°
2026-05-07 03:28 49.44062 10.54437 31879 ft 491 kts 303°
2026-05-07 03:28 49.48050 10.45881 31900 ft 491 kts 303°
2026-05-07 03:29 49.52038 10.37331 31896 ft 492 kts 303°
2026-05-07 03:29 49.56026 10.28764 31886 ft 491 kts 304°
2026-05-07 03:30 49.60007 10.20194 31883 ft 491 kts 304°
2026-05-07 03:30 49.63967 10.11637 31881 ft 491 kts 304°
2026-05-07 03:31 49.67928 10.03036 31882 ft 491 kts 303°
2026-05-07 03:31 49.70980 9.93690 31885 ft 487 kts 287°
2026-05-07 03:32 49.72098 9.83422 31879 ft 485 kts 273°
2026-05-07 03:32 49.72418 9.73011 31886 ft 485 kts 271°
2026-05-07 03:33 49.72633 9.62577 31886 ft 485 kts 271°
2026-05-07 03:33 49.72860 9.52154 31892 ft 485 kts 271°
2026-05-07 03:34 49.73100 9.41726 31901 ft 486 kts 272°
2026-05-07 03:34 49.73338 9.31321 31900 ft 487 kts 272°
2026-05-07 03:35 49.73568 9.20853 31902 ft 487 kts 272°
2026-05-07 03:35 49.73787 9.10402 31902 ft 487 kts 272°
2026-05-07 03:36 49.73996 8.99927 31908 ft 487 kts 271°
2026-05-07 03:36 49.74197 8.89438 31908 ft 488 kts 271°
2026-05-07 03:37 49.74388 8.78947 31913 ft 488 kts 271°
2026-05-07 03:37 49.74569 8.68446 31920 ft 488 kts 271°
2026-05-07 03:38 49.74740 8.57968 31921 ft 488 kts 271°
2026-05-07 03:38 49.75137 8.47493 31923 ft 488 kts 279°
2026-05-07 03:39 49.76600 8.37234 31919 ft 488 kts 283°
2026-05-07 03:39 49.78240 8.27050 31919 ft 488 kts 284°
2026-05-07 03:40 49.79895 8.16849 31923 ft 488 kts 284°
2026-05-07 03:40 49.81521 8.06675 31919 ft 483 kts 284°
2026-05-07 03:41 49.83166 7.96686 31922 ft 481 kts 286°
2026-05-07 03:41 49.85060 7.86741 31921 ft 480 kts 287°
2026-05-07 03:42 49.86970 7.76813 31924 ft 481 kts 287°
2026-05-07 03:42 49.88839 7.66832 31925 ft 482 kts 286°
2026-05-07 03:43 49.90682 7.56817 31925 ft 481 kts 286°
2026-05-07 03:43 49.92507 7.46826 31936 ft 481 kts 286°
2026-05-07 03:44 49.94328 7.36810 31939 ft 482 kts 286°
2026-05-07 03:44 49.96138 7.26805 31939 ft 481 kts 285°
2026-05-07 03:45 49.97940 7.16798 31939 ft 479 kts 285°
2026-05-07 03:45 49.99723 7.06833 31937 ft 480 kts 285°
2026-05-07 03:46 50.01502 6.96836 31936 ft 479 kts 285°
2026-05-07 03:46 50.03906 6.87224 31944 ft 478 kts 297°
2026-05-07 03:47 50.07058 6.78083 31941 ft 479 kts 298°
2026-05-07 03:47 50.10279 6.69068 31941 ft 480 kts 299°
2026-05-07 03:48 50.13524 6.59966 31940 ft 480 kts 298°
2026-05-07 03:48 50.16756 6.50868 31936 ft 479 kts 300°
2026-05-07 03:49 50.20869 6.42729 31945 ft 480 kts 317°
2026-05-07 03:49 50.25908 6.35864 31950 ft 480 kts 320°
2026-05-07 03:50 50.31069 6.29208 31953 ft 480 kts 320°
2026-05-07 03:50 50.36221 6.22574 31966 ft 480 kts 320°
2026-05-07 03:51 50.41315 6.15952 31963 ft 478 kts 320°
2026-05-07 03:51 50.46429 6.09261 31978 ft 479 kts 320°
2026-05-07 03:52 50.51549 6.02539 31977 ft 480 kts 320°
2026-05-07 03:52 50.56665 5.95802 31977 ft 478 kts 320°
2026-05-07 03:53 50.61639 5.88883 31983 ft 478 kts 313°
2026-05-07 03:53 50.65424 5.80305 31986 ft 478 kts 295°
2026-05-07 03:54 50.67629 5.70430 31990 ft 478 kts 287°
2026-05-07 03:54 50.69494 5.60363 31991 ft 479 kts 287°
2026-05-07 03:55 50.71495 5.50341 31993 ft 478 kts 288°
2026-05-07 03:55 50.73528 5.40346 31994 ft 478 kts 288°
2026-05-07 03:56 50.75539 5.30351 31992 ft 478 kts 288°
2026-05-07 03:56 50.77529 5.20349 31992 ft 477 kts 288°
2026-05-07 03:57 50.79505 5.10352 31991 ft 476 kts 288°
2026-05-07 03:57 50.81468 5.00370 31990 ft 476 kts 287°
2026-05-07 03:58 50.83382 4.90349 31990 ft 476 kts 287°
2026-05-07 03:58 50.85271 4.80308 31991 ft 476 kts 287°
2026-05-07 03:59 50.87161 4.70257 31990 ft 476 kts 287°
2026-05-07 03:59 50.89037 4.60265 32021 ft 476 kts 287°
2026-05-07 04:00 50.91545 4.50610 32023 ft 475 kts 300°
2026-05-07 04:00 50.94894 4.41579 32021 ft 475 kts 301°
2026-05-07 04:01 50.98340 4.32642 32016 ft 475 kts 301°
2026-05-07 04:01 51.01786 4.23689 32010 ft 475 kts 301°
2026-05-07 04:02 51.05218 4.14694 32007 ft 475 kts 301°
2026-05-07 04:02 51.08631 4.05692 32004 ft 475 kts 301°
2026-05-07 04:03 51.12038 3.96669 32002 ft 475 kts 301°
2026-05-07 04:03 51.15422 3.87679 31998 ft 475 kts 301°
2026-05-07 04:04 51.18263 3.80109 31999 ft 475 kts 301°
2026-05-07 04:04 51.22158 3.69559 31996 ft 474 kts 297°
2026-05-07 04:05 51.24395 3.59720 31999 ft 474 kts 284°
2026-05-07 04:05 51.25628 3.51127 31999 ft 474 kts 282°
2026-05-07 04:06 51.26962 3.40880 31997 ft 474 kts 282°
2026-05-07 04:06 51.28285 3.30553 32004 ft 474 kts 281°
2026-05-07 04:07 51.29595 3.20190 32010 ft 472 kts 281°
2026-05-07 04:07 51.30886 3.09983 32013 ft 471 kts 281°
2026-05-07 04:08 51.32181 2.99719 32016 ft 471 kts 281°
2026-05-07 04:08 51.33469 2.89445 31999 ft 471 kts 281°
2026-05-07 04:09 51.34747 2.79170 32001 ft 470 kts 281°
2026-05-07 04:09 51.36020 2.68911 32001 ft 470 kts 281°
2026-05-07 04:10 51.37284 2.58638 32004 ft 470 kts 281°
2026-05-07 04:10 51.38536 2.48375 32010 ft 470 kts 281°
2026-05-07 04:11 51.39782 2.38085 32011 ft 470 kts 281°
2026-05-07 04:11 51.41020 2.27784 32012 ft 471 kts 281°
2026-05-07 04:12 51.42262 2.17542 32015 ft 471 kts 281°
2026-05-07 04:12 51.43519 2.07239 32020 ft 471 kts 281°
2026-05-07 04:13 51.44770 1.96924 32020 ft 471 kts 281°
2026-05-07 04:13 51.45992 1.86604 32023 ft 471 kts 280°
2026-05-07 04:14 51.47185 1.76326 32026 ft 471 kts 280°
2026-05-07 04:14 51.48367 1.65954 32031 ft 471 kts 280°
2026-05-07 04:15 51.49547 1.55616 32032 ft 471 kts 280°
2026-05-07 04:15 51.50718 1.45263 32034 ft 471 kts 280°
2026-05-07 04:16 51.51879 1.34892 32034 ft 473 kts 280°
2026-05-07 04:16 51.53038 1.24478 32039 ft 473 kts 280°
2026-05-07 04:17 51.54053 1.14089 32043 ft 473 kts 274°
2026-05-07 04:17 51.54131 1.03498 32042 ft 473 kts 269°
2026-05-07 04:18 51.54004 0.92923 32042 ft 474 kts 269°
2026-05-07 04:18 51.53838 0.82328 32042 ft 476 kts 269°
2026-05-07 04:19 51.53669 0.71687 32042 ft 476 kts 269°
2026-05-07 04:19 51.53502 0.61060 32042 ft 476 kts 269°
2026-05-07 04:20 51.53329 0.50431 32045 ft 476 kts 269°
2026-05-07 04:20 51.53146 0.39796 32045 ft 477 kts 269°
2026-05-07 04:21 51.53104 0.23869 32047 ft 478 kts 271°
2026-05-07 04:21 51.53179 0.13222 32048 ft 477 kts 271°
2026-05-07 04:22 51.53217 0.02557 32048 ft 478 kts 270°
2026-05-07 04:22 51.53223 -0.08125 32063 ft 480 kts 270°
2026-05-07 04:23 51.53215 -0.18873 32047 ft 481 kts 270°
2026-05-07 04:23 51.53198 -0.29616 32048 ft 481 kts 270°
2026-05-07 04:24 51.53172 -0.40368 32048 ft 481 kts 270°
2026-05-07 04:24 51.53137 -0.51121 32048 ft 481 kts 270°
2026-05-07 04:25 51.53092 -0.61802 32047 ft 481 kts 270°
2026-05-07 04:25 51.53037 -0.72542 32047 ft 481 kts 270°
2026-05-07 04:26 51.52972 -0.83282 32048 ft 481 kts 270°
2026-05-07 04:26 51.52898 -0.94014 32048 ft 481 kts 269°
2026-05-07 04:27 51.52813 -1.04791 32048 ft 482 kts 269°
2026-05-07 04:27 51.52837 -1.15583 32048 ft 483 kts 275°
2026-05-07 04:28 51.53855 -1.26181 32048 ft 483 kts 281°
2026-05-07 04:28 51.55100 -1.36774 32050 ft 483 kts 281°
2026-05-07 04:29 51.56367 -1.47372 32049 ft 483 kts 281°
2026-05-07 04:29 51.57617 -1.58043 32055 ft 488 kts 281°
2026-05-07 04:30 51.58225 -1.68914 32057 ft 489 kts 268°
2026-05-07 04:30 51.57800 -1.79858 32055 ft 490 kts 266°
2026-05-07 04:31 51.57225 -1.90723 32059 ft 490 kts 265°
2026-05-07 04:31 51.56629 -2.01659 32057 ft 491 kts 265°
2026-05-07 04:32 51.56038 -2.12610 32056 ft 492 kts 265°
2026-05-07 04:32 51.55446 -2.23562 32055 ft 492 kts 265°
2026-05-07 04:33 51.54846 -2.34517 32043 ft 490 kts 265°
2026-05-07 04:33 51.54238 -2.45398 32036 ft 489 kts 265°
2026-05-07 04:34 51.53622 -2.56229 32029 ft 490 kts 265°
2026-05-07 04:34 51.52991 -2.67138 32027 ft 490 kts 265°
2026-05-07 04:35 51.52352 -2.78021 32025 ft 490 kts 265°
2026-05-07 04:35 51.51700 -2.88940 32057 ft 490 kts 264°
2026-05-07 04:36 51.51040 -2.99839 32059 ft 492 kts 264°
2026-05-07 04:36 51.50366 -3.10783 32043 ft 492 kts 264°
2026-05-07 04:37 51.49683 -3.21705 32047 ft 492 kts 264°
2026-05-07 04:37 51.48989 -3.32634 32048 ft 492 kts 264°
2026-05-07 04:38 51.48286 -3.43558 32022 ft 493 kts 264°
2026-05-07 04:38 51.47570 -3.54517 32021 ft 495 kts 264°
2026-05-07 04:39 51.46845 -3.65435 32020 ft 494 kts 264°
2026-05-07 04:39 51.46108 -3.76390 32017 ft 494 kts 264°
2026-05-07 04:40 51.45360 -3.87359 32013 ft 494 kts 264°
2026-05-07 04:40 51.44603 -3.98296 32013 ft 492 kts 263°
2026-05-07 04:41 51.43839 -4.09203 32008 ft 491 kts 263°
2026-05-07 04:41 51.43065 -4.20086 32006 ft 491 kts 263°
2026-05-07 04:42 51.42285 -4.30913 32007 ft 492 kts 263°
2026-05-07 04:42 51.41663 -4.41843 32007 ft 495 kts 266°
2026-05-07 04:43 51.41255 -4.52870 32003 ft 495 kts 266°
2026-05-07 04:43 51.40824 -4.63881 31997 ft 496 kts 266°
2026-05-07 04:44 51.40341 -4.74881 31997 ft 495 kts 265°
2026-05-07 04:44 51.39831 -4.85890 31998 ft 494 kts 265°
2026-05-07 04:45 51.39311 -4.96832 31998 ft 493 kts 265°
2026-05-07 04:45 51.38873 -5.05932 31999 ft 493 kts 265°
2026-05-07 04:46 51.38338 -5.16868 31999 ft 493 kts 265°
2026-05-07 04:46 51.37792 -5.27813 31997 ft 493 kts 265°
2026-05-07 04:47 51.37240 -5.38693 31990 ft 493 kts 265°
2026-05-07 04:47 51.36671 -5.49679 31990 ft 493 kts 265°
2026-05-07 04:48 51.36098 -5.60566 31990 ft 493 kts 265°
2026-05-07 04:48 51.35512 -5.71492 31990 ft 493 kts 265°
2026-05-07 04:49 51.34917 -5.82407 31993 ft 493 kts 264°
2026-05-07 04:49 51.34310 -5.93335 31988 ft 493 kts 264°
2026-05-07 04:50 51.33697 -6.04199 31991 ft 493 kts 264°
2026-05-07 04:50 51.33068 -6.15145 31986 ft 493 kts 264°
2026-05-07 04:51 51.32432 -6.26051 31988 ft 493 kts 264°
2026-05-07 04:51 51.31785 -6.36963 31988 ft 493 kts 264°
2026-05-07 04:52 51.31127 -6.47883 31989 ft 493 kts 264°
2026-05-07 04:52 51.30459 -6.58812 31982 ft 493 kts 264°
2026-05-07 04:53 51.29781 -6.69725 31981 ft 493 kts 263°
2026-05-07 04:53 51.29097 -6.80577 31978 ft 494 kts 263°
2026-05-07 04:54 51.28396 -6.91520 31979 ft 494 kts 263°
2026-05-07 04:54 51.27686 -7.02442 31981 ft 495 kts 263°
2026-05-07 04:55 51.26965 -7.13379 31980 ft 494 kts 263°
2026-05-07 04:55 51.26234 -7.24303 31980 ft 493 kts 263°
2026-05-07 04:56 51.25496 -7.35187 31977 ft 492 kts 263°
2026-05-07 04:56 51.24753 -7.45991 31977 ft 492 kts 263°
2026-05-07 04:57 51.24083 -7.56863 31977 ft 493 kts 268°
2026-05-07 04:57 51.24014 -7.67808 31978 ft 493 kts 269°
2026-05-07 04:58 51.24041 -7.78751 31978 ft 493 kts 269°
2026-05-07 04:58 51.24071 -7.89728 31976 ft 493 kts 269°
2026-05-07 04:59 51.24082 -8.00678 31974 ft 493 kts 269°
2026-05-07 04:59 51.24077 -8.11583 31978 ft 493 kts 269°
2026-05-07 05:00 51.24061 -8.22536 31977 ft 493 kts 269°
2026-05-07 05:00 51.24035 -8.33474 31977 ft 493 kts 269°
2026-05-07 05:01 51.23998 -8.44434 31974 ft 493 kts 269°
2026-05-07 05:01 51.23952 -8.55379 31974 ft 493 kts 269°
2026-05-07 05:02 51.23896 -8.66328 31977 ft 493 kts 268°
2026-05-07 05:02 51.23829 -8.77261 31977 ft 492 kts 268°
2026-05-07 05:03 51.23753 -8.88119 31975 ft 492 kts 268°
2026-05-07 05:03 51.23665 -8.99096 31980 ft 497 kts 268°
2026-05-07 05:04 51.23567 -9.10152 31982 ft 497 kts 268°
2026-05-07 05:04 51.23459 -9.21185 31979 ft 497 kts 268°
2026-05-07 05:05 51.23341 -9.32130 31980 ft 497 kts 268°
2026-05-07 05:05 51.23212 -9.43155 31980 ft 497 kts 268°
2026-05-07 05:06 51.23073 -9.54186 31979 ft 497 kts 268°
2026-05-07 05:06 51.22923 -9.65202 31977 ft 496 kts 268°
2026-05-07 05:07 51.22763 -9.76227 31977 ft 496 kts 268°
2026-05-07 05:07 51.22593 -9.87227 31977 ft 496 kts 267°
2026-05-07 05:08 51.22412 -9.98240 31979 ft 496 kts 267°
2026-05-07 05:08 51.22221 -10.09243 31979 ft 496 kts 267°
2026-05-07 05:09 51.22021 -10.20174 31974 ft 496 kts 267°
2026-05-07 05:09 51.21810 -10.31175 31974 ft 496 kts 267°
2026-05-07 05:10 51.21588 -10.42176 31974 ft 496 kts 267°
2026-05-07 05:10 51.21356 -10.53179 31977 ft 496 kts 267°
2026-05-07 05:11 51.21113 -10.64179 31974 ft 496 kts 267°
2026-05-07 05:11 51.20860 -10.75105 31974 ft 496 kts 266°
2026-05-07 05:12 51.20359 -10.86086 31971 ft 495 kts 264°
2026-05-07 05:12 51.19723 -10.97014 31971 ft 495 kts 264°
2026-05-07 05:13 51.19108 -11.07962 31969 ft 495 kts 264°
2026-05-07 05:13 51.18520 -11.18890 31969 ft 495 kts 264°
2026-05-07 05:14 51.17931 -11.29815 31969 ft 494 kts 264°
2026-05-07 05:14 51.17332 -11.40729 31969 ft 494 kts 264°
2026-05-07 05:15 51.16720 -11.51659 31966 ft 495 kts 264°
2026-05-07 05:15 51.16103 -11.62500 31966 ft 495 kts 264°
2026-05-07 05:16 51.15470 -11.73427 31966 ft 495 kts 264°
2026-05-07 05:16 51.14828 -11.84339 31966 ft 494 kts 264°
2026-05-07 05:17 51.14175 -11.95245 31960 ft 494 kts 264°
2026-05-07 05:17 51.13512 -12.06166 31964 ft 496 kts 264°
2026-05-07 05:18 51.12838 -12.17096 31966 ft 495 kts 264°
2026-05-07 05:18 51.12154 -12.28013 31967 ft 496 kts 264°
2026-05-07 05:19 51.11464 -12.38862 31963 ft 495 kts 264°
2026-05-07 05:19 51.10761 -12.49742 31959 ft 493 kts 264°
2026-05-07 05:20 51.10050 -12.60593 31961 ft 492 kts 264°
2026-05-07 05:20 51.09333 -12.71388 31960 ft 491 kts 264°
2026-05-07 05:21 51.08235 -12.87638 31958 ft 491 kts 264°
2026-05-07 05:22 51.07493 -12.98411 31960 ft 489 kts 264°
2026-05-07 05:22 51.06745 -13.09139 31960 ft 487 kts 264°
2026-05-07 05:23 51.05989 -13.19837 31955 ft 487 kts 264°
2026-05-07 05:23 51.05222 -13.30559 31955 ft 487 kts 263°
2026-05-07 05:24 51.04453 -13.41161 31951 ft 484 kts 263°
2026-05-07 05:24 51.03675 -13.51745 31951 ft 481 kts 263°
2026-05-07 05:25 51.02888 -13.62330 31952 ft 481 kts 263°
2026-05-07 05:25 51.02092 -13.72884 31955 ft 481 kts 263°
2026-05-07 05:26 51.01288 -13.83427 31954 ft 481 kts 262°
2026-05-07 05:26 51.00478 -13.93932 31954 ft 477 kts 262°
2026-05-07 05:27 51.00040 -14.04404 31956 ft 476 kts 269°
2026-05-07 05:27 51.00030 -14.14879 31955 ft 477 kts 269°
2026-05-07 05:28 51.00071 -14.25407 31953 ft 476 kts 270°
2026-05-07 05:28 51.00101 -14.35927 31953 ft 476 kts 269°
2026-05-07 05:29 51.00113 -14.46433 31952 ft 475 kts 269°
2026-05-07 05:29 51.00113 -14.55162 31949 ft 475 kts 269°
2026-05-07 05:30 51.00103 -14.65647 31953 ft 475 kts 269°
2026-05-07 05:30 51.00083 -14.76146 31952 ft 475 kts 269°
2026-05-07 05:31 51.00055 -14.86638 31952 ft 475 kts 269°
2026-05-07 05:31 51.00018 -14.97129 31949 ft 475 kts 269°
2026-05-07 05:32 51.00057 -15.07630 31949 ft 475 kts 271°
2026-05-07 05:32 51.00312 -15.18132 31949 ft 475 kts 271°
2026-05-07 05:33 51.00567 -15.28562 31948 ft 475 kts 271°
2026-05-07 05:33 51.00778 -15.39015 31946 ft 472 kts 270°
2026-05-07 05:34 51.00961 -15.49423 31949 ft 471 kts 270°
2026-05-07 05:34 51.01132 -15.59813 31949 ft 470 kts 270°
2026-05-07 05:35 51.01294 -15.70191 31952 ft 470 kts 270°
2026-05-07 05:35 51.01448 -15.80568 31954 ft 469 kts 270°
2026-05-07 05:36 51.01593 -15.90897 31949 ft 466 kts 270°
2026-05-07 05:36 51.01728 -16.01132 31950 ft 466 kts 269°
2026-05-07 05:37 51.01854 -16.11421 31949 ft 466 kts 269°
2026-05-07 05:37 51.01971 -16.21720 31949 ft 466 kts 269°
2026-05-07 05:38 51.02080 -16.32023 31956 ft 465 kts 269°
2026-05-07 05:38 51.02179 -16.42247 31955 ft 463 kts 269°
2026-05-07 05:39 51.02269 -16.52504 31952 ft 463 kts 269°
2026-05-07 05:39 51.02349 -16.62741 31952 ft 463 kts 269°
2026-05-07 05:40 51.02420 -16.72897 31952 ft 463 kts 269°
2026-05-07 05:40 51.02484 -16.83147 31952 ft 461 kts 269°
2026-05-07 05:41 51.02538 -16.93317 31952 ft 460 kts 269°
2026-05-07 05:41 51.02582 -17.03466 31952 ft 460 kts 269°
2026-05-07 05:42 51.02619 -17.13661 31954 ft 460 kts 268°
2026-05-07 05:42 51.02645 -17.23814 31952 ft 460 kts 268°
2026-05-07 05:43 51.02663 -17.33986 31955 ft 459 kts 268°
2026-05-07 05:43 51.02673 -17.44069 31955 ft 459 kts 268°
2026-05-07 05:44 51.02673 -17.54189 31955 ft 459 kts 268°
2026-05-07 05:44 51.02665 -17.64348 31955 ft 459 kts 268°
2026-05-07 05:45 51.02648 -17.74470 31956 ft 459 kts 268°
2026-05-07 05:45 51.02623 -17.84606 31955 ft 458 kts 267°
2026-05-07 05:46 51.02589 -17.94731 31954 ft 458 kts 267°
2026-05-07 05:46 51.02546 -18.04793 31955 ft 458 kts 267°
2026-05-07 05:47 51.02494 -18.14901 31956 ft 458 kts 267°
2026-05-07 05:47 51.02434 -18.25008 31965 ft 458 kts 267°
2026-05-07 05:48 51.02365 -18.35163 31954 ft 456 kts 267°
2026-05-07 05:48 51.02288 -18.45182 31955 ft 456 kts 267°
2026-05-07 05:49 51.02201 -18.55258 31958 ft 456 kts 266°
2026-05-07 05:49 51.02106 -18.65331 31960 ft 456 kts 266°
2026-05-07 05:50 51.02003 -18.75409 31962 ft 457 kts 266°
2026-05-07 05:50 51.01890 -18.85498 31958 ft 456 kts 266°
2026-05-07 05:51 51.01769 -18.95585 31951 ft 456 kts 266°
2026-05-07 05:51 51.01639 -19.05670 31949 ft 456 kts 266°
2026-05-07 05:52 51.01501 -19.15755 31950 ft 456 kts 266°
2026-05-07 05:52 51.01354 -19.25820 31949 ft 456 kts 266°
2026-05-07 05:53 51.01199 -19.35905 31947 ft 456 kts 266°
2026-05-07 05:53 51.01034 -19.45972 31946 ft 456 kts 266°
2026-05-07 05:54 51.00861 -19.56052 31945 ft 456 kts 266°
2026-05-07 05:54 51.00681 -19.66061 31949 ft 456 kts 266°
2026-05-07 05:55 51.00490 -19.76152 31947 ft 456 kts 265°
2026-05-07 05:55 51.00292 -19.86216 31942 ft 456 kts 265°
2026-05-07 05:56 51.00084 -19.96299 31943 ft 456 kts 265°
2026-05-07 05:56 50.99794 -20.06343 31939 ft 455 kts 263°
2026-05-07 05:57 50.99185 -20.16359 31938 ft 455 kts 262°
2026-05-07 05:57 50.98535 -20.26332 31935 ft 455 kts 262°
2026-05-07 05:58 50.97925 -20.36292 31937 ft 458 kts 263°
2026-05-07 05:58 50.97326 -20.46372 31930 ft 459 kts 263°
2026-05-07 05:59 50.96728 -20.56408 31931 ft 459 kts 263°
2026-05-07 05:59 50.96112 -20.66546 31922 ft 458 kts 262°
2026-05-07 06:00 50.95490 -20.76617 31923 ft 459 kts 263°
2026-05-07 06:00 50.94864 -20.86638 31919 ft 460 kts 262°
2026-05-07 06:01 50.94221 -20.96725 31919 ft 460 kts 262°
2026-05-07 06:01 50.93568 -21.06840 31912 ft 460 kts 262°
2026-05-07 06:02 50.92908 -21.16927 31920 ft 460 kts 262°
2026-05-07 06:02 50.92244 -21.26954 31915 ft 462 kts 262°
2026-05-07 06:03 50.91565 -21.37076 31915 ft 462 kts 262°
2026-05-07 06:03 50.90876 -21.47211 31911 ft 462 kts 262°
2026-05-07 06:04 50.90178 -21.57351 31913 ft 462 kts 262°
2026-05-07 06:04 50.89472 -21.67464 31909 ft 462 kts 262°
2026-05-07 06:05 50.88756 -21.77611 31905 ft 464 kts 262°
2026-05-07 06:05 50.88029 -21.87774 31906 ft 464 kts 262°
2026-05-07 06:06 50.87295 -21.97916 31908 ft 464 kts 262°
2026-05-07 06:06 50.86550 -22.08076 31909 ft 464 kts 262°
2026-05-07 06:07 50.85796 -22.18229 31904 ft 465 kts 262°
2026-05-07 06:07 50.85032 -22.28403 31912 ft 466 kts 262°
2026-05-07 06:08 50.84263 -22.38530 31894 ft 466 kts 262°
2026-05-07 06:08 50.83481 -22.48709 31892 ft 466 kts 262°
2026-05-07 06:09 50.82690 -22.58880 31890 ft 466 kts 262°
2026-05-07 06:09 50.81889 -22.69053 31896 ft 466 kts 262°
2026-05-07 06:10 50.81081 -22.79216 31889 ft 465 kts 262°
2026-05-07 06:10 50.80264 -22.89357 31894 ft 465 kts 262°
2026-05-07 06:11 50.79579 -22.97794 31891 ft 465 kts 262°
2026-05-07 06:11 50.78746 -23.07938 31889 ft 465 kts 262°
2026-05-07 06:12 50.77904 -23.18076 31902 ft 465 kts 262°
2026-05-07 06:12 50.77053 -23.28217 31899 ft 465 kts 262°
2026-05-07 06:13 50.76194 -23.38351 31886 ft 465 kts 262°
2026-05-07 06:13 50.75331 -23.48415 31976 ft 466 kts 262°
2026-05-07 06:13 50.74893 -23.53494 32314 ft 466 kts 262°
2026-05-07 06:14 50.74454 -23.58537 32886 ft 460 kts 263°
2026-05-07 06:14 50.74017 -23.63540 33218 ft 462 kts 263°
2026-05-07 06:14 50.73572 -23.68618 33165 ft 469 kts 263°
2026-05-07 06:14 50.73125 -23.73688 33585 ft 466 kts 263°
2026-05-07 06:15 50.72676 -23.78747 34003 ft 464 kts 263°
2026-05-07 06:15 50.71771 -23.88907 34280 ft 468 kts 263°
2026-05-07 06:15 50.71316 -23.93958 34712 ft 464 kts 263°
2026-05-07 06:16 50.70858 -23.99027 34816 ft 467 kts 263°
2026-05-07 06:16 50.70398 -24.04100 34944 ft 469 kts 262°
2026-05-07 06:16 50.69930 -24.09205 35172 ft 468 kts 263°
2026-05-07 06:16 50.69464 -24.14285 35289 ft 471 kts 263°
2026-05-07 06:17 50.68990 -24.19423 35346 ft 474 kts 263°
2026-05-07 06:17 50.68516 -24.24537 35688 ft 470 kts 263°
2026-05-07 06:17 50.68047 -24.29582 35870 ft 471 kts 263°
2026-05-07 06:18 50.67082 -24.39874 35909 ft 478 kts 264°
2026-05-07 06:18 50.66100 -24.50246 35906 ft 478 kts 263°
2026-05-07 06:19 50.65104 -24.60621 35908 ft 477 kts 263°
2026-05-07 06:19 50.64104 -24.70951 35891 ft 478 kts 264°
2026-05-07 06:20 50.63094 -24.81333 35892 ft 478 kts 263°
2026-05-07 06:20 50.62081 -24.91626 35903 ft 478 kts 263°
2026-05-07 06:21 50.61054 -25.01976 35904 ft 479 kts 263°
2026-05-07 06:21 50.60012 -25.12346 35910 ft 479 kts 263°
2026-05-07 06:22 50.58960 -25.22729 35908 ft 480 kts 264°
2026-05-07 06:22 50.57367 -25.38295 35906 ft 480 kts 263°
2026-05-07 06:23 50.56295 -25.48662 35905 ft 481 kts 263°
2026-05-07 06:23 50.55209 -25.59073 35906 ft 482 kts 263°
2026-05-07 06:24 50.54110 -25.69478 35906 ft 483 kts 264°
2026-05-07 06:24 50.53000 -25.79908 35907 ft 483 kts 263°
2026-05-07 06:25 50.51882 -25.90326 35913 ft 483 kts 263°
2026-05-07 06:25 50.50754 -26.00752 35912 ft 485 kts 264°
2026-05-07 06:26 50.49620 -26.11127 35909 ft 486 kts 262°
2026-05-07 06:26 50.48465 -26.21590 35908 ft 485 kts 263°
2026-05-07 06:27 50.47306 -26.32041 35909 ft 486 kts 263°
2026-05-07 06:27 50.46135 -26.42491 35906 ft 487 kts 263°
2026-05-07 06:28 50.44948 -26.52975 35909 ft 488 kts 263°
2026-05-07 06:28 50.43750 -26.63475 35917 ft 489 kts 263°
2026-05-07 06:29 50.42544 -26.73983 35914 ft 489 kts 262°
2026-05-07 06:29 50.41336 -26.84406 35905 ft 489 kts 263°
2026-05-07 06:30 50.40109 -26.94911 35919 ft 491 kts 263°
2026-05-07 06:30 50.38869 -27.05445 35920 ft 491 kts 263°
2026-05-07 06:31 50.37617 -27.15979 35920 ft 491 kts 263°
2026-05-07 06:31 50.36360 -27.26455 35923 ft 491 kts 263°
2026-05-07 06:32 50.35088 -27.36976 35919 ft 493 kts 262°
2026-05-07 06:32 50.33805 -27.47537 35922 ft 494 kts 262°
2026-05-07 06:33 50.32508 -27.58106 35925 ft 494 kts 262°
2026-05-07 06:33 50.31206 -27.68646 35925 ft 494 kts 262°
2026-05-07 06:34 50.29891 -27.79201 35922 ft 494 kts 262°
2026-05-07 06:34 50.28563 -27.89788 35928 ft 496 kts 262°
2026-05-07 06:35 50.27225 -28.00363 35933 ft 496 kts 262°
2026-05-07 06:35 50.25874 -28.10954 35937 ft 496 kts 262°
2026-05-07 06:36 50.24520 -28.21483 35950 ft 497 kts 262°
2026-05-07 06:36 50.23149 -28.32082 35950 ft 499 kts 262°
2026-05-07 06:37 50.21760 -28.42723 35943 ft 499 kts 262°
2026-05-07 06:37 50.20365 -28.53335 35950 ft 499 kts 262°
2026-05-07 06:38 50.18958 -28.63953 35950 ft 499 kts 262°
2026-05-07 06:38 50.17541 -28.74574 35953 ft 501 kts 262°
2026-05-07 06:39 50.16111 -28.85216 35957 ft 502 kts 262°
2026-05-07 06:39 50.14676 -28.95806 35965 ft 502 kts 262°
2026-05-07 06:40 50.13223 -29.06460 35970 ft 502 kts 262°
2026-05-07 06:40 50.11762 -29.17089 35969 ft 502 kts 262°
2026-05-07 06:41 50.10289 -29.27727 35963 ft 502 kts 261°
2026-05-07 06:41 50.08806 -29.38366 35967 ft 502 kts 261°
2026-05-07 06:42 50.07316 -29.48978 35973 ft 502 kts 261°
2026-05-07 06:42 50.05822 -29.59542 35963 ft 502 kts 261°
2026-05-07 06:43 50.04308 -29.70174 35980 ft 504 kts 261°
2026-05-07 06:43 50.02780 -29.80827 35985 ft 504 kts 261°
2026-05-07 06:44 50.01244 -29.91459 35989 ft 504 kts 261°
2026-05-07 06:44 49.99702 -30.02094 35978 ft 504 kts 262°
2026-05-07 06:45 49.98497 -30.12805 35998 ft 503 kts 266°
2026-05-07 06:45 49.97479 -30.23575 35994 ft 503 kts 266°
2026-05-07 06:46 49.96405 -30.34322 36006 ft 504 kts 265°
2026-05-07 06:46 49.95270 -30.45074 35994 ft 504 kts 265°
2026-05-07 06:47 49.94108 -30.55826 36008 ft 505 kts 265°
2026-05-07 06:47 49.92936 -30.66578 36010 ft 505 kts 265°
2026-05-07 06:48 49.91762 -30.77271 36015 ft 506 kts 265°
2026-05-07 06:48 49.90566 -30.88080 36022 ft 506 kts 265°
2026-05-07 06:49 49.89363 -30.98851 36006 ft 506 kts 265°
2026-05-07 06:49 49.88152 -31.09607 36029 ft 507 kts 265°
2026-05-07 06:50 49.86938 -31.20293 36030 ft 507 kts 265°
2026-05-07 06:50 49.85704 -31.31063 36029 ft 507 kts 265°
2026-05-07 06:51 49.84461 -31.41822 36032 ft 507 kts 265°
2026-05-07 06:51 49.83207 -31.52578 36037 ft 507 kts 265°
2026-05-07 06:52 49.81946 -31.63303 36057 ft 506 kts 265°
2026-05-07 06:52 49.80676 -31.74025 36059 ft 506 kts 265°
2026-05-07 06:53 49.79611 -31.82938 36063 ft 506 kts 265°
2026-05-07 06:53 49.78323 -31.93643 36055 ft 507 kts 265°
2026-05-07 06:54 49.77024 -32.04356 36072 ft 506 kts 265°
2026-05-07 06:54 49.75712 -32.15077 36071 ft 506 kts 265°
2026-05-07 06:55 49.74401 -32.25715 36084 ft 506 kts 265°
2026-05-07 06:55 49.73072 -32.36411 36068 ft 506 kts 265°
2026-05-07 06:56 49.71732 -32.47100 36092 ft 506 kts 265°
2026-05-07 06:56 49.70385 -32.57769 36098 ft 506 kts 265°
2026-05-07 06:57 49.69027 -32.68447 36096 ft 506 kts 265°
2026-05-07 06:57 49.67658 -32.79124 36103 ft 506 kts 265°
2026-05-07 06:58 49.66284 -32.89756 36102 ft 504 kts 265°
2026-05-07 06:58 49.64904 -33.00347 36110 ft 502 kts 265°
2026-05-07 06:59 49.63517 -33.10926 36121 ft 502 kts 265°
2026-05-07 06:59 49.62124 -33.21476 36121 ft 502 kts 265°
2026-05-07 07:00 49.60716 -33.32050 36120 ft 502 kts 265°